Regional Weather Roundup
Issued by NWS Upton, NY

Home | Current Version | Previous Version | Text Only | Print | Product List | Glossary On
Versions: 1 2 3 4 5 6 7 8 9 10 11 12 13 14 15 16 17 18 19 20 21 22 23 24 25 26 27 28 29 30 31 32 33 34 35 36 37 38 39 40 41 42 43 44 45 46 47 48 49 50
662
ASUS41 KOKX 041904
RWROKX

REGIONAL WEATHER ROUNDUP
NATIONAL WEATHER SERVICE NEW YORK NY
300 PM EDT WED MAY 04 2016

NOTE: "FAIR" INDICATES FEW OR NO CLOUDS BELOW 12,000 FEET WITH NO
SIGNIFICANT WEATHER AND/OR OBSTRUCTIONS TO VISIBILITY.

NYZ071-072-176-178-NJZ106-104-042000-
NEW YORK CITY METRO AREA


CITY           SKY/WX    TMP DP  RH WIND       PRES   REMARKS
CENTRAL PARK   CLOUDY    49  44  83 NE12      29.76F
LAGUARDIA APRT LGT RAIN  50  48  93 NE16      29.74F FOG
KENNEDY INTL   LGT RAIN  50  48  93 NE7       29.74F FOG
NEWARK/LIBERTY DRIZZLE   50  46  86 N15       29.74F
BRNX BOT. GARD   N/A     48  43  81 SE5       29.73F
TETERBORO      LGT RAIN  51  41  68 NE10G20   29.73F
$$

NYZ177-179-078>081-042000-
LONG ISLAND NEW YORK

CITY           SKY/WX    TMP DP  RH WIND       PRES   REMARKS
FARMINGDALE    CLOUDY    50  45  83 NE13      29.73F
ISLIP          CLOUDY    49  44  83 NE12G22   29.73F
SHIRLEY        CLOUDY    50  44  80 NE9G21    29.74S
RIVERHEAD        N/A     50  46  87 SE6       29.74S
WESTHAMPTON    CLOUDY    47  46  97 NE12      29.75R
EAST HAMPTON   CLOUDY    50  43  75 E16G24    29.74F
MONTAUK POINT    N/A     49  44  83 NE12G18   29.76F
$$

NYZ052-065-067-042000-
HUDSON VALLEY

CITY           SKY/WX    TMP DP  RH WIND       PRES   REMARKS
WHITE PLAINS   CLOUDY    49  44  83 E12       29.73F
NEWBURGH       NOT AVBL
MONTGOMERY     CLOUDY    50  47  89 NE9       29.75F
POUGHKEEPSIE   CLOUDY    51  47  86 N8        29.76F FOG
ALBANY         LGT RAIN  49  46  90 S6        29.80S FOG
$$

NJZ001-105-106-008-010-013-015-019>022-104-042000-
NEW JERSEY

CITY           SKY/WX    TMP DP  RH WIND       PRES   REMARKS
NEWARK/LIBERTY DRIZZLE   50  46  86 N15       29.74F
TETERBORO      LGT RAIN  51  41  68 NE10G20   29.73F
CALDWELL       CLOUDY    50  44  80 E10G20    29.74F
MORRISTOWN     LGT RAIN  50  48  93 NE6       29.74F FOG
SOMERVILLE     CLOUDY    52  46  80 E8G16     29.71F
SUSSEX         CLOUDY    50  46  86 NE8       29.74F FOG
ANDOVER          N/A     52  46  80 VRB5      29.73F
TRENTON        CLOUDY    51  47  86 E13G22    29.71S
MILLVILLE      CLOUDY    52  48  86 NE8       29.70R
ATLANTIC CITY  HVY RAIN  49  48  97 N7        29.70R FOG
WRIGHTSTOWN    CLOUDY    50  46  87 NE13      29.69R
TOMS RIVER     CLOUDY    46  45  93 NE12      29.72S
BELMAR         RAIN      47  46  97 E14G22    29.73S
$$

PAZ047>061-062-071-042000-
EASTERN PENNSYLVANIA

CITY           SKY/WX    TMP DP  RH WIND       PRES   REMARKS
PHILADELPHIA   CLOUDY    53  46  77 NE9       29.71S
ALLENTOWN      CLOUDY    52  48  86 NE7       29.72S FOG
SCRANTON       LGT RAIN  51  49  92 E6        29.71F FOG
$$

CTZ002-004>006-009-010-012-RIZ004-006-007-MAZ004-011-015-042000-
SOUTHERN NEW ENGLAND
 IN CT

CITY           SKY/WX    TMP DP  RH WIND       PRES   REMARKS
BRADLEY INTL   CLOUDY    51  42  71 E9        29.78F
HARTFORD       CLOUDY    54  44  69 NE7       29.78F
DANBURY        CLOUDY    50  43  77 NE7       29.77S
WTRBRY/OXFORD  CLOUDY    50  41  71 NE10      29.76F
BRIDGEPORT     CLOUDY    51  46  83 E12       29.75F
MERIDEN        CLOUDY    53  43  68 NE9       29.76F
NEW HAVEN      CLOUDY    53  44  71 NE8       29.74F
CHESTER        CLOUDY    50  45  81 VRB7G15   29.75F
GROTON         CLOUDY    52  49  89 NE18      29.73F
WILLIMANTIC    LGT RAIN  52  43  71 NE12      29.77F

 IN RI

CITY           SKY/WX    TMP DP  RH WIND       PRES   REMARKS
PROVIDENCE     CLOUDY    51  40  65 NE16      29.80F
BLOCK ISLAND   LGT RAIN  48  43  82 NE18G25   29.76F
WESTERLY       CLOUDY    52  39  61 NE10G23   29.77F

 IN MA

CITY           SKY/WX    TMP DP  RH WIND       PRES   REMARKS
BOSTON         CLOUDY    47  40  76 NE14      29.86S
WORCESTER      RAIN      44  39  82 E13G23    29.80F
WESTFIELD      CLOUDY    50  41  71 NE8       29.79F
PROVINCETOWN   CLOUDY    46  42  86 E17       29.85S
NANTUCKET      HVY RAIN  47  44  90 NE21G28   29.76F FOG
$$

ANZ330-335-338-340-345-350-353-355-042000-
COASTAL MARINE OBSERVATIONS


STATION/POSITION TIME  SKY/WX   TEMP    WIND        PRES    VSBY  WAVE
                                AIR SEA DIR/SP/G                  HT/PER
                 (UTC)          (F)     (DEG/KT/KT) (MB)    (MI)  (FT/S)
NY HARB ENTRANCE 1750            48 50   60/ 23/ 29 1005.5          6/ 5
20S FIRE ISLAND  1750            47 49   70/ 21/ 25 1005.4          6/ 6
GREAT SOUTH BAY  1800            49 55   60/ 16/ 23   N/A
23 SSW MONTAUK P 1850            46 47   60/ 21/ 25 1006.1          6/ 6
15 E BARNEGAT LI 1822               50                N/A           6/ 6
HUDSON CANYON    1750            49 48              1003.9          6/ 6
KINGS POINT      1800            49 53              1007.1
EXECUTION ROCKS  NOT AVBL
CENTRAL LI SOUND 1815            48      80/ 16/ 19   N/A           3/ 5
EASTERN LI SOUND 1800            49 48   90/ 10/ 16   N/A
ROBBINS REEF     1812            49      30/ 11/ 14 1006.4
$$


>>>>>>>>>>>>>>>>>>>>>>>>>>>> KEY <<<<<<<<<<<<<<<<<<<<<<<<<<<
>                                                          <
>     SKY/WX - SKY CONDITION/PRESENT WEATHER               <
>     TMP    - TEMPERATURE IN FAHRENHEIT                   <
>     DP     - DEWPOINT IN FAHRENHEIT                      <
>     RH     - RELATIVE HUMIDITY IN PERCENT                <
>     WIND   - DIRECTION AND SPEED IN MPH                  <
>     PRES   - MEAN SEA LEVEL PRESSURE IN INCHES OF HG     <
>     WCI    - WIND CHILL INDEX                            <
>     VSB    - VISIBILITY IN MILES                         <
>     HX     - HEAT INDEX                                  <
>     TC     - TEMPERATURE IN CELSIUS                      <
>     VRB    - VARIABLE WIND DIRECTION                     <
>                                                          <
>>>>>>>>>>>>>>>>>>>>>>>>>>>> KEY <<<<<<<<<<<<<<<<<<<<<<<<<<<






USA.gov is the U.S. government's official web portal to all federal, state and local government web resources and services.